[[{"header":{"parameterUnit":"m.s-1","parameterCategory":1,"la1":30.2991,"la2":30.254,"lo1":-89.0895,"lo2":-89.0444,"dy":0.0017,"dx":0.0017,"nx":28,"ny":28,"refTime":"2024-07-12T03:00:00:Z","depth":0,"parameterNumber":2,"parameterNumberName":"U-component_of_WINDS"},"data":[0,0,0,0,0,0,0,0,0,0,0,0,0,0,0,0,0,0,0,0,0,0,0,0,0,0,0,0,0,0,0,0,0,0,0,0,0,0,0,0,0,0,0,0,0,0,0,0,0,0,0,0,0,0,0,0,0,0,1.434,1.4343,0,1.4549,1.4551,1.4553,1.462,1.4619,1.4618,1.4617,1.4832,1.4838,1.4845,0,0,0,0,0,0,0,0,0,0,0,0,0,1.4,1.4006,1.434,1.4343,1.4345,1.4548,1.4551,1.4554,1.462,1.4619,1.4618,1.4617,1.483,1.4838,1.4845,0,0,0,0,0,0,0,0,0,0,0,0,0,1.4172,1.4008,1.434,1.4403,1.4411,1.4548,1.4551,1.4555,1.4621,1.4619,1.4618,1.4616,1.4827,1.4837,1.4847,1.4936,0,0,1.4877,1.4881,0,0,0,0,0,0,0,0,1.4162,1.4184,1.4391,1.4399,1.4408,1.4557,1.451,1.4683,1.4621,1.4541,1.4617,1.4616,1.4742,1.4758,1.4801,1.4946,1.4955,1.4878,1.4884,1.4888,1.4891,0,0,0,0,0,0,0,1.415,1.4176,1.4423,1.4394,1.4404,1.4421,1.4444,1.4543,1.4647,1.4548,1.4553,1.4577,1.4746,1.4791,1.4806,1.4959,1.4877,1.4886,1.4892,1.4896,1.5188,1.5189,0,0,0,0,0,0,1.4127,1.4165,1.4416,1.4429,1.4279,1.4428,1.4454,1.4511,1.4646,1.4665,1.4578,1.4579,1.4775,1.4795,1.4814,1.4928,1.4888,1.4897,1.4903,1.5186,1.5188,1.519,0,0,0,0,0,0,1.412,1.4149,1.4408,1.4299,1.4333,1.4436,1.4499,1.4515,1.4561,1.4669,1.4687,1.4605,1.4775,1.48,1.4905,1.4936,1.4902,1.4911,1.5184,1.5186,1.5189,1.5155,0,0,0,0,0,0,1.411,1.4146,1.4181,1.4299,1.4338,1.4495,1.4501,1.4521,1.4577,1.4581,1.4699,1.4717,1.4775,1.489,1.4915,1.4949,1.4918,1.5181,1.5185,1.5188,1.5154,1.5156,1.5158,0,0,0,0,0,1.4097,1.4163,1.4182,1.4212,1.4384,1.4497,1.4519,1.4585,1.458,1.4616,1.4685,1.4713,1.4928,1.49,1.4929,1.4966,1.518,1.5184,1.5188,1.5153,1.5156,1.5158,0,0,0,0,0,0,1.4047,1.418,1.4203,1.4309,1.4391,1.4508,1.4555,1.4586,1.4671,1.4671,1.4749,1.4775,1.4874,1.4931,1.4897,1.506,1.5055,1.5065,1.5019,1.5023,1.5025,1.5009,1.4926,0,0,0,0,0,1.4048,1.4128,1.424,1.4323,1.4363,1.4452,1.4503,1.4546,1.4634,1.467,1.4747,1.4831,1.4918,1.4974,1.506,1.5163,1.5189,1.5202,1.5205,1.5206,1.5214,1.5272,1.5279,1.5203,1.5203,1.5203,0,0,1.4051,1.4134,1.4179,1.4315,1.4383,1.4464,1.448,1.4566,1.4626,1.4683,1.4786,1.4846,1.4945,1.5049,1.5099,1.51,1.524,1.5211,1.5211,1.5219,1.5277,1.5284,1.529,1.5206,1.5206,1.5205,0,0,1.4098,1.4169,1.4245,1.4314,1.4417,1.4476,1.4494,1.4607,1.4648,1.4753,1.4797,1.4871,1.5019,1.5088,1.5142,1.5215,1.5244,1.5241,1.5252,1.5308,1.5314,1.532,1.5345,1.5354,1.5248,1.5248,1.5248,0,1.4089,1.4213,1.4281,1.4364,1.4422,1.4476,1.4554,1.4617,1.4744,1.4782,1.4781,1.4968,1.5039,1.5159,1.5177,1.522,1.5243,1.5227,1.5308,1.5314,1.532,1.5346,1.5355,1.5247,1.5247,1.5247,1.5247,0,1.4196,1.4281,1.4331,1.4451,1.4515,1.4594,1.4675,1.4731,1.4769,1.4827,1.4933,1.5021,1.5125,1.5157,1.5195,1.5283,1.528,1.5292,1.5289,1.5325,1.535,1.5361,1.5245,1.5246,1.5246,1.5246,0,0,1.4217,1.4374,1.4391,1.4446,1.4564,1.4631,1.4713,1.4815,1.4861,1.4947,1.5018,1.5141,1.5153,1.5215,1.5261,1.531,1.5361,1.5316,1.532,1.5321,1.5464,1.5453,1.5463,1.5381,1.5384,1.5385,1.5455,0,1.4279,1.4428,1.4492,1.4612,1.4691,1.4744,1.4816,1.4896,1.4953,1.5028,1.5091,1.5177,1.5187,1.5224,1.5275,1.5344,1.5391,1.534,1.5448,1.5451,1.5421,1.5477,1.5467,1.5528,1.5465,1.5467,1.5468,0,1.4372,1.4457,1.4584,1.4693,1.4728,1.4791,1.4889,1.4961,1.5053,1.5091,1.5159,1.5203,1.5291,1.5282,1.5405,1.5369,1.5417,1.5457,1.5461,1.5474,1.5462,1.549,1.555,1.5559,1.5485,1.5483,1.5482,0,1.4373,1.452,1.4616,1.4661,1.479,1.4833,1.4888,1.4979,1.5036,1.5122,1.5159,1.5254,1.5306,1.5378,1.5446,1.5433,1.5562,1.5559,1.5596,1.5595,1.5621,1.5618,1.5688,1.5652,1.5652,1.5652,1.5652,0,1.4436,1.4512,1.4618,1.4676,1.4763,1.4836,1.4919,1.4979,1.5059,1.513,1.5181,1.5247,1.5332,1.5409,1.5463,1.5556,1.5579,1.5612,1.5626,1.5608,1.5603,1.564,1.5637,1.5654,1.5654,1.5653,1.5653,0,1.4452,1.4527,1.4634,1.4747,1.4777,1.4836,1.4933,1.4991,1.505,1.514,1.5165,1.5258,1.535,1.5425,1.5547,1.5583,1.568,1.5696,1.5649,1.5656,1.5689,1.5684,1.5785,1.5801,1.5754,1.5754,1.5754,0,1.4487,1.4547,1.4666,1.4717,1.4772,1.4854,1.4912,1.4986,1.5044,1.5153,1.5198,1.5294,1.5375,1.5521,1.5599,1.5692,1.571,1.5739,1.5725,1.5704,1.571,1.5706,1.5712,1.574,1.574,1.574,1.5741,0,1.4541,1.4575,1.4656,1.4751,1.4819,1.4897,1.4976,1.5015,1.5103,1.5166,1.5261,1.5324,1.5447,1.5542,1.5643,1.5701,1.5735,1.5744,1.5758,1.574,1.571,1.5726,1.5653,1.5742,1.5742,1.5742,1.5742,1.5741,1.4568,1.4623,1.4715,1.4805,1.4872,1.4945,1.5005,1.5072,1.5152,1.5258,1.5297,1.5394,1.5485,1.5624,1.5682,1.576,1.5763,1.5782,1.5787,1.5791,1.5788,1.5698,1.5778,1.5778,1.5778,1.5779,1.5779,0,1.4624,1.4685,1.4767,1.4876,1.4946,1.4972,1.5061,1.5118,1.5203,1.5284,1.5363,1.5472,1.5564,1.5649,1.5746,1.5791,1.5809,1.5814,1.5811,1.5824,1.578,1.5759,1.5797,1.5797,1.5797,1.5797,1.5797,1.5797,1.4661,1.4756,1.48,1.4929,1.499,1.5086,1.5134,1.5202,1.5267,1.5386,1.5463,1.5518,1.5601,1.5704,1.5789,1.5812,1.5845,1.5845,1.5872,1.583,1.5827,1.5824,1.5804,1.5852,1.5852,1.5909,1.591,1.591]},{"header":{"parameterUnit":"m.s-1","parameterCategory":1,"la1":30.2991,"la2":30.254,"lo1":-89.0895,"lo2":-89.0444,"dy":0.0017,"dx":0.0017,"nx":28,"ny":28,"refTime":"2024-07-12T03:00:00:Z","depth":0,"parameterNumber":3,"parameterNumberName":"V-component_of_WINDS"},"data":[0,0,0,0,0,0,0,0,0,0,0,0,0,0,0,0,0,0,0,0,0,0,0,0,0,0,0,0,0,0,0,0,0,0,0,0,0,0,0,0,0,0,0,0,0,0,0,0,0,0,0,0,0,0,0,0,0,0,4.8917,4.8917,0,4.8887,4.8886,4.8886,4.8805,4.8803,4.8801,4.88,4.8771,4.8772,4.8773,0,0,0,0,0,0,0,0,0,0,0,0,0,4.8908,4.8908,4.8917,4.8917,4.8916,4.8887,4.8886,4.8886,4.8805,4.8803,4.8801,4.8799,4.8771,4.8772,4.8773,0,0,0,0,0,0,0,0,0,0,0,0,0,4.8898,4.8908,4.8917,4.8872,4.8868,4.8887,4.8886,4.8886,4.8805,4.8803,4.88,4.8798,4.877,4.8772,4.8773,4.8834,0,0,4.8777,4.8777,0,0,0,0,0,0,0,0,4.8899,4.8898,4.8879,4.8876,4.8871,4.8847,4.8872,4.8868,4.8806,4.8829,4.8799,4.8796,4.8798,4.8797,4.8797,4.8832,4.8831,4.8777,4.8778,4.8778,4.8779,0,0,0,0,0,0,0,4.8899,4.8899,4.8905,4.8879,4.8874,4.8855,4.885,4.8871,4.8829,4.8827,4.8821,4.8818,4.8796,4.8796,4.8796,4.8831,4.8777,4.8778,4.8779,4.8779,4.8914,4.8916,0,0,0,0,0,0,4.8906,4.89,4.8906,4.8904,4.8878,4.8857,4.8852,4.8857,4.8829,4.8822,4.8821,4.8815,4.8795,4.8795,4.8795,4.8864,4.8778,4.878,4.878,4.8911,4.8914,4.8917,0,0,0,0,0,0,4.8906,4.8907,4.8907,4.8901,4.8899,4.886,4.8866,4.8858,4.8858,4.8824,4.8816,4.8829,4.8793,4.8793,4.8824,4.8862,4.878,4.8781,4.8907,4.8912,4.8916,4.9002,0,0,0,0,0,0,4.8906,4.8908,4.893,4.8902,4.89,4.8937,4.8868,4.8859,4.8861,4.8853,4.883,4.8823,4.8791,4.8823,4.8826,4.8862,4.8782,4.8904,4.8909,4.8914,4.8996,4.9009,4.902,0,0,0,0,0,4.8906,4.8956,4.8932,4.8933,4.8926,4.8939,4.8938,4.89,4.8864,4.8886,4.8864,4.8824,4.8857,4.8827,4.8829,4.8866,4.8901,4.8908,4.8914,4.899,4.9006,4.902,0,0,0,0,0,0,4.8991,4.8952,4.8924,4.8966,4.8956,4.8925,4.8952,4.8918,4.8918,4.8911,4.8864,4.8859,4.8897,4.8885,4.8852,4.8924,4.8873,4.888,4.893,4.8945,4.8957,4.8959,4.8783,0,0,0,0,0,4.9014,4.9027,4.8992,4.9033,4.9029,4.8992,4.8996,4.8967,4.8956,4.8951,4.8931,4.8922,4.8931,4.8937,4.8943,4.8994,4.8988,4.9021,4.9033,4.9043,4.905,4.9076,4.909,4.8938,4.8938,4.8938,0,0,4.9063,4.9043,4.9054,4.9049,4.9039,4.9054,4.8989,4.9008,4.9018,4.8954,4.8982,4.8968,4.8955,4.8996,4.9013,4.8987,4.909,4.9051,4.9059,4.906,4.9084,4.9098,4.9111,4.8942,4.8941,4.894,0,0,4.9159,4.9146,4.9177,4.9168,4.9152,4.9127,4.9135,4.9109,4.9096,4.9123,4.9076,4.9088,4.9104,4.9096,4.9094,4.9188,4.9152,4.9192,4.9255,4.9281,4.9293,4.9303,4.9336,4.9349,4.9199,4.9199,4.9199,0,4.9222,4.9241,4.9199,4.922,4.922,4.9162,4.9194,4.9187,4.9175,4.9176,4.9146,4.9164,4.9152,4.919,4.9213,4.9214,4.9222,4.9194,4.9294,4.9304,4.9313,4.9345,4.9357,4.9204,4.9203,4.9203,4.9202,0,4.9319,4.9334,4.9362,4.935,4.9353,4.938,4.9342,4.935,4.9321,4.9299,4.9328,4.9311,4.9312,4.9319,4.9291,4.9354,4.9338,4.9302,4.925,4.9333,4.9362,4.9374,4.9211,4.9209,4.9207,4.9206,0,0,4.9468,4.9432,4.9443,4.9436,4.9415,4.9426,4.9451,4.9451,4.9459,4.9452,4.9472,4.9486,4.9453,4.9451,4.9422,4.9445,4.952,4.9406,4.9405,4.9428,4.9589,4.9616,4.963,4.9496,4.9498,4.95,4.959,0,4.9558,4.9597,4.9559,4.9606,4.9619,4.9565,4.9586,4.9576,4.9556,4.9565,4.9544,4.9555,4.951,4.9508,4.9529,4.9507,4.9552,4.95,4.9515,4.9516,4.9519,4.9645,4.9674,4.9759,4.9601,4.9603,4.9604,0,4.9669,4.9666,4.9714,4.9689,4.9693,4.9713,4.9711,4.972,4.9707,4.9691,4.9689,4.9654,4.9677,4.9627,4.9659,4.9624,4.9628,4.9618,4.9621,4.962,4.9565,4.9648,4.9785,4.9798,4.9621,4.962,4.9619,0,4.9772,4.9781,4.981,4.9807,4.9779,4.9794,4.9783,4.9768,4.977,4.9769,4.977,4.9771,4.9772,4.9774,4.974,4.9707,4.9777,4.9723,4.9765,4.9766,4.9781,4.9781,4.9921,4.9785,4.9785,4.9784,4.9784,0,4.9876,4.9908,4.9856,4.9874,4.9908,4.9865,4.99,4.9884,4.9871,4.9885,4.9839,4.9854,4.9808,4.9819,4.9793,4.9823,4.9824,4.9813,4.9805,4.9817,4.9818,4.9818,4.9811,4.9788,4.9787,4.9786,4.9786,0,4.9997,4.9963,4.9992,4.9963,4.9956,4.9983,4.9958,4.9974,4.9952,4.9971,4.9973,4.9938,4.9948,4.9915,4.992,4.9902,4.9947,4.993,4.9951,4.9945,4.9988,4.9985,5.0134,5.0151,5.0004,5.0005,5.0007,0,5.0066,5.0088,5.0062,5.0068,5.0059,5.007,5.0072,5.0031,5.0035,5.0022,5.004,5.0046,5.0049,5.0068,5.0043,5.0047,5.003,5.0081,5.003,5.0041,5.003,5.0029,5.0031,5.0092,5.0094,5.0095,5.0097,0,5.0191,5.0174,5.0178,5.0177,5.0181,5.0178,5.0173,5.0181,5.0136,5.0144,5.0153,5.0155,5.0159,5.0166,5.0165,5.0154,5.0119,5.0113,5.0123,5.0134,5.0146,5.014,4.998,5.011,5.0108,5.0108,5.0107,5.0106,5.0288,5.0306,5.0289,5.0296,5.0287,5.0283,5.0297,5.0275,5.0282,5.0282,5.0257,5.0272,5.0259,5.0253,5.0246,5.0257,5.0233,5.0248,5.0251,5.0255,5.0262,5.0144,5.0257,5.0257,5.0256,5.0256,5.0256,0,5.0411,5.0398,5.0404,5.0397,5.0403,5.0368,5.036,5.0367,5.038,5.037,5.0373,5.0384,5.0391,5.0367,5.037,5.0384,5.0367,5.0386,5.0384,5.0383,5.0284,5.0275,5.0399,5.0399,5.0399,5.0399,5.0399,5.0399,5.0476,5.0504,5.0484,5.0508,5.0494,5.0507,5.0505,5.0502,5.0494,5.0508,5.0512,5.0496,5.0481,5.0483,5.0488,5.048,5.0484,5.0508,5.0496,5.0404,5.039,5.0376,5.0368,5.0509,5.0509,5.0593,5.0594,5.0595]}]]